Location: Unspecified
(44.4377°N, 88.0525°W)
Time: 12:25:11
(UTC-05:00)

Resurs 1-4 Rocket - Visible Passes

Search period start: 26 May 2018 00:00
Search period end: 05 June 2018 00:00
Orbit: 799 x 814 km, 98.5° (Epoch: 25 May)

Date Brightness Start Highest point End Pass type
(mag) Time Alt. Az. Time Alt. Az. Time Alt. Az.
26 May 4.1 01:42:34 10° NE 01:46:07 18° E 01:48:39 13° ESE visible
26 May 2.2 03:21:08 10° N 03:26:23 64° WNW 03:29:44 23° SSW visible
27 May 4.6 01:20:26 10° ENE 01:21:12 10° E 01:21:58 10° E visible
27 May 2.1 02:56:30 10° NNE 03:01:50 81° ESE 03:04:54 26° S visible
27 May 4.0 04:37:52 10° NNW 04:41:00 16° WNW 04:44:07 10° W visible
28 May 2.7 02:32:03 10° NNE 02:37:12 49° E 02:40:03 25° SSE visible
28 May 3.5 04:12:31 10° N 04:16:44 25° WNW 04:20:57 10° WSW visible
29 May 3.5 02:07:49 10° NE 02:12:29 30° E 02:15:12 20° SE visible
29 May 2.9 03:47:29 10° N 03:52:22 38° WNW 03:56:17 15° SW visible
30 May 4.1 01:44:00 10° NE 01:47:40 19° E 01:50:22 13° SE visible
30 May 2.3 03:22:40 10° N 03:27:55 61° WNW 03:31:26 21° SW visible
31 May 4.5 01:21:28 10° ENE 01:22:45 11° E 01:24:02 10° E visible
31 May 2.1 02:58:01 10° NNE 03:03:22 83° ESE 03:06:35 25° S visible
01 Jun 2.7 02:33:33 10° NNE 02:38:44 51° E 02:41:45 24° SSE visible
01 Jun 3.5 04:14:04 10° N 04:18:14 24° WNW 04:22:24 10° WSW visible
02 Jun 3.4 02:09:19 10° NNE 02:14:01 31° E 02:16:53 19° SE visible
02 Jun 2.9 03:49:02 10° N 03:53:53 37° WNW 03:57:58 14° SW visible
03 Jun 4.1 01:45:27 10° NE 01:49:13 19° E 01:52:02 13° SE visible
03 Jun 2.3 03:24:12 10° N 03:29:26 59° WNW 03:33:07 20° SW visible
04 Jun 4.5 01:22:41 10° ENE 01:24:19 11° E 01:25:56 10° ESE visible
04 Jun 2.1 02:59:32 10° NNE 03:04:54 86° ESE 03:08:15 24° SSW visible
